This demonstration page uses our WeatherBlox Daily Observations layout. Learn more.

Left ArrowRight Arrow

53.62937, 11.41316

Hourly Observations for July 3, 2016

Temp ( °F °C ) Dew Point ( °F °C ) Humidity (%) Winds ( mph kmh ) Pressure ( in mb ) Visibility ( mi km ) Precip ( " mm )
6:20 am 06:20 Mostly Sunny 52 11 48 9 88 88 SSW 3 6 30.03 1017 7 11 N/A
6:50 am 06:50 Mostly Sunny 52 11 50 10 94 94 SW 6 9 30.03 1017 7 11 N/A
7:20 am 07:20 Mostly Sunny 54 12 50 10 88 88 SSW 8 13 30.03 1017 7 11 N/A
7:50 am 07:50 Mostly Sunny 55 13 50 10 82 82 SW 9 15 30.03 1017 7 11 N/A
8:20 am 08:20 Mostly Sunny 57 14 52 11 82 82 SSW 10 17 30.03 1017 7 11 N/A
8:50 am 08:50 Mostly Sunny 59 15 52 11 77 77 SW 12 19 30.03 1017 7 11 N/A
9:20 am 09:20 Mostly Sunny 61 16 52 11 72 72 SW 12 19 30.03 1017 7 11 N/A
9:50 am 09:50 Partly Cloudy 61 16 52 11 72 72 WSW 13 20 30.03 1017 30 48 N/A
10:20 am 10:20 Partly Cloudy 63 17 52 11 68 68 SW 13 20 30.03 1017 30 48 N/A
10:50 am 10:50 Mostly Cloudy 61 16 50 10 68 68 WSW 15 24 30.03 1017 30 48 N/A
11:20 am 11:20 Partly Cloudy 63 17 48 9 59 59 SSW 15 24 30.03 1017 30 48 N/A
11:50 am 11:50 Partly Cloudy 63 17 48 9 59 59 SSW 15 24 30.03 1017 30 48 N/A
12:20 pm 12:20 Partly Cloudy 64 18 50 10 60 60 SSW 14 22 30.03 1017 30 48 N/A
12:50 pm 12:50 Mostly Cloudy 64 18 50 10 60 60 SW 15 24 30.03 1017 30 48 N/A
1:10 pm 13:10 Mostly Cloudy with Showers 61 16 50 10 68 68 SW 12 19 30.03 1017 30 48 N/A
1:20 pm 13:20 Mostly Cloudy with Light Showers 55 13 54 12 94 94 W 15 24 30.06 1018 30 48 N/A
1:50 pm 13:50 Mostly Cloudy 61 16 54 12 77 77 SW 7 11 30.03 1017 30 48 N/A
2:20 pm 14:20 Partly Cloudy 64 18 48 9 56 56 SW 8 13 30.03 1017 30 48 N/A
2:50 pm 14:50 Mostly Cloudy 61 16 48 9 63 63 WSW 16 26 30.03 1017 30 48 N/A
3:20 pm 15:20 Mostly Cloudy 66 19 50 10 56 56 WSW 12 19 30.03 1017 30 48 N/A
3:50 pm 15:50 Partly Cloudy 63 17 50 10 64 64 SSW 16 26 30.03 1017 30 48 N/A
4:20 pm 16:20 Partly Cloudy 66 19 52 11 60 60 SSW 13 20 30.03 1017 30 48 N/A
4:50 pm 16:50 Partly Cloudy with Showers Nearby 63 17 46 8 56 56 WSW 17 28 30.03 1017 30 48 N/A
5:20 pm 17:20 Partly Cloudy with Light Showers 57 14 52 11 82 82 WNW 8 13 30.06 1018 30 48 N/A
5:50 pm 17:50 Mostly Cloudy 59 15 54 12 82 82 NW 5 7 30.06 1018 30 48 N/A
6:20 pm 18:20 Mostly Cloudy 59 15 54 12 82 82 VRB 2 4 30.06 1018 30 48 N/A
6:50 pm 18:50 Partly Cloudy 59 15 55 13 88 88 WSW 5 7 30.06 1018 30 48 N/A
7:20 pm 19:20 Partly Cloudy 63 17 52 11 68 68 SW 7 11 30.06 1018 30 48 N/A

Powered by AerisWeather